Location: Arborea
(39.7744°N, 8.5819°E)
Time: 01:18:56
(UTC+00:00)

Cosmos 1000 Rocket - Pass Details

Date: 04 October 2023
Orbit: 952 x 993 km, 82.9° (Epoch: 03 December)

Event Time Altitude Azimuth Distance (km) Brightness Sun altitude
Exits shadow 19:01:57 11° 38° (NE) 2,678 6.6 -23.4°
Drops below altitude 10° 19:02:21 10° 35° (NE) 2,791 6.7 -23.4°
Sets 19:05:20 0° 22° (NNE) 3,716 7.5 -24.0°
